[[{"header":{"parameterUnit":"m.s-1","parameterCategory":1,"la1":30.2991,"la2":30.254,"lo1":-89.0895,"lo2":-89.0444,"dy":0.0017,"dx":0.0017,"nx":28,"ny":28,"refTime":"2023-08-07T03:00:00:Z","depth":0,"parameterNumber":2,"parameterNumberName":"U-component_of_WINDS"},"data":[0,0,0,0,0,0,0,0,0,0,0,0,0,0,0,0,0,0,0,0,0,0,0,0,0,0,0,0,0,0,0,0,0,0,0,0,0,0,0,0,0,0,0,0,0,0,0,0,0,0,0,0,0,0,0,0,0,0,2.9946,2.9947,0,3.0018,3.0019,3.002,2.9988,2.9986,2.9984,2.9983,3.0061,3.0064,3.0068,0,0,0,0,0,0,0,0,0,0,0,0,0,2.9785,2.9788,2.9946,2.9947,2.9948,3.0018,3.0019,3.002,2.9988,2.9986,2.9984,2.9982,3.0059,3.0064,3.0068,0,0,0,0,0,0,0,0,0,0,0,0,0,2.9856,2.9789,2.9946,2.994,2.994,3.0018,3.0019,3.0021,2.9989,2.9986,2.9983,2.9981,3.0058,3.0063,3.0069,3.0158,0,0,3.0086,3.0089,0,0,0,0,0,0,0,0,2.9852,2.9862,2.994,2.9941,2.9941,2.9991,2.9991,3.0067,2.9989,2.997,2.9982,2.9979,3.004,3.0047,3.0066,3.0161,3.0165,3.0087,3.009,3.0092,3.0094,0,0,0,0,0,0,0,2.9847,2.9858,2.9975,2.9941,2.9942,2.9936,2.9943,3.0005,3.002,2.9972,2.997,2.9979,3.004,3.0061,3.0068,3.0166,3.0086,3.0091,3.0095,3.0097,3.0338,3.0341,0,0,0,0,0,0,2.9841,2.9855,2.9973,2.9977,2.9889,2.9941,2.9949,2.9978,3.0019,3.0022,2.9981,2.9977,3.0053,3.0062,3.0071,3.0177,3.0092,3.0098,3.0101,3.0335,3.0338,3.0342,0,0,0,0,0,0,2.9838,2.9852,2.997,2.9915,2.993,2.9946,2.998,2.9981,3.0002,3.0025,3.0028,3.0,3.0051,3.0063,3.0136,3.0179,3.01,3.0105,3.0331,3.0336,3.034,3.039,0,0,0,0,0,0,2.9834,2.9851,2.9884,2.9916,2.9933,3.0032,2.9982,2.9984,3.0011,3.0007,3.0044,3.0047,3.005,3.0128,3.0142,3.0186,3.011,3.0327,3.0333,3.0339,3.0385,3.0396,3.0406,0,0,0,0,0,2.9828,2.9896,2.9886,2.99,2.9974,3.0035,3.0045,3.0045,3.0015,3.0049,3.0064,3.0046,3.0173,3.0136,3.0151,3.0197,3.0325,3.0332,3.0338,3.038,3.0394,3.0405,0,0,0,0,0,0,2.9869,2.99,2.9889,2.9969,3.0,3.0029,3.0071,3.0059,3.0099,3.0094,3.0094,3.0102,3.0178,3.0195,3.0153,3.0286,3.0244,3.0254,3.0271,3.0284,3.0294,3.0288,3.0114,0,0,0,0,0,2.9887,2.9933,2.9958,3.0027,3.0043,3.0055,3.0081,3.0079,3.0111,3.0124,3.0145,3.0178,3.0225,3.0256,3.03,3.0388,3.0396,3.0428,3.0438,3.0446,3.0455,3.0502,3.0517,3.0364,3.0364,3.0364,0,0,2.9926,2.9948,2.9977,3.0036,3.0059,3.0108,3.0066,3.0119,3.0155,3.0133,3.0202,3.0219,3.0256,3.0337,3.0373,3.0353,3.0499,3.0455,3.0461,3.0465,3.0511,3.0525,3.0538,3.0368,3.0368,3.0367,0,0,3.002,3.0042,3.0101,3.0125,3.0161,3.0169,3.0183,3.0216,3.0225,3.0295,3.0279,3.0324,3.0405,3.0432,3.0456,3.0563,3.0548,3.0578,3.0631,3.0678,3.069,3.07,3.0738,3.0751,3.0586,3.0586,3.0587,0,3.0063,3.0135,3.0134,3.0188,3.0215,3.0196,3.0256,3.0281,3.033,3.0349,3.0326,3.0427,3.0451,3.0538,3.0564,3.0585,3.0602,3.0572,3.0688,3.0699,3.0709,3.0744,3.0758,3.059,3.0589,3.0589,3.0589,0,3.0186,3.0236,3.028,3.0327,3.0359,3.0416,3.0425,3.0458,3.0453,3.0464,3.0536,3.0564,3.0614,3.0635,3.0632,3.0722,3.0708,3.0687,3.0645,3.0726,3.076,3.0774,3.0594,3.0593,3.0592,3.0591,0,0,3.0306,3.0352,3.0368,3.0389,3.0428,3.0468,3.0526,3.0573,3.0601,3.0637,3.0685,3.0755,3.0735,3.0763,3.0763,3.0804,3.0886,3.0778,3.0779,3.0796,3.0987,3.1002,3.1018,3.0878,3.088,3.0883,3.0984,0,3.0402,3.0501,3.0503,3.0594,3.0641,3.0625,3.0676,3.0706,3.0718,3.0761,3.0775,3.0824,3.0795,3.0811,3.0851,3.0868,3.0925,3.0861,3.0923,3.0925,3.0912,3.1035,3.1051,3.1145,3.0997,3.0999,3.1001,0,3.0527,3.0565,3.0661,3.0694,3.0714,3.0759,3.0803,3.0844,3.0879,3.0885,3.0917,3.0911,3.0971,3.0929,3.1012,3.0968,3.0995,3.1007,3.1011,3.1015,3.0967,3.1042,3.1175,3.1189,3.1022,3.102,3.1019,0,3.0604,3.068,3.0747,3.0766,3.0806,3.0838,3.0857,3.0889,3.0918,3.0957,3.0976,3.1023,3.1049,3.1086,3.1093,3.1062,3.1177,3.1135,3.1184,3.1183,3.1207,3.1205,3.1345,3.1227,3.1226,3.1226,3.1226,0,3.071,3.0769,3.0782,3.0823,3.0889,3.0892,3.0958,3.0974,3.1003,3.1048,3.1038,3.1081,3.1089,3.1134,3.1141,3.1208,3.1221,3.1228,3.1228,3.1227,3.1226,3.1243,3.1236,3.123,3.1229,3.1228,3.1228,0,3.0806,3.0817,3.0889,3.0921,3.0931,3.0978,3.1007,3.1047,3.1059,3.1116,3.113,3.1149,3.1201,3.1213,3.1276,3.128,3.136,3.1356,3.1348,3.1347,3.1394,3.1389,3.1548,3.1569,3.1439,3.144,3.1441,0,3.0872,3.0917,3.0954,3.0983,3.1003,3.105,3.108,3.1085,3.1117,3.116,3.1195,3.1247,3.1287,3.1372,3.1392,3.1441,3.1436,3.1489,3.1443,3.1441,3.1435,3.1432,3.1436,3.1497,3.1498,3.1499,3.15,0,3.0988,3.0991,3.1033,3.1078,3.1114,3.115,3.1184,3.1209,3.1219,3.1255,3.1308,3.134,3.1404,3.1455,3.1503,3.1524,3.1514,3.1515,3.1528,3.1527,3.152,3.1523,3.137,3.151,3.1509,3.1509,3.1508,3.1508,3.107,3.1109,3.1141,3.1189,3.1216,3.1248,3.1287,3.1305,3.1349,3.14,3.1401,3.1459,3.1494,3.1558,3.1582,3.1628,3.1612,3.1632,3.1636,3.1641,3.1644,3.1514,3.1637,3.1637,3.1637,3.1636,3.1636,0,3.1184,3.1204,3.1248,3.1296,3.1335,3.1322,3.136,3.1393,3.1443,3.1476,3.1517,3.1579,3.1628,3.1653,3.1703,3.1735,3.1732,3.1748,3.1744,3.1749,3.1657,3.1639,3.175,3.175,3.1749,3.1749,3.1749,3.1749,3.1247,3.1313,3.1321,3.14,3.1421,3.1476,3.1499,3.1529,3.1556,3.1624,3.1666,3.1681,3.1711,3.1763,3.1809,3.1815,3.1833,3.1851,3.1855,3.1768,3.1756,3.1745,3.1728,3.1856,3.1856,3.1944,3.1945,3.1945]},{"header":{"parameterUnit":"m.s-1","parameterCategory":1,"la1":30.2991,"la2":30.254,"lo1":-89.0895,"lo2":-89.0444,"dy":0.0017,"dx":0.0017,"nx":28,"ny":28,"refTime":"2023-08-07T03:00:00:Z","depth":0,"parameterNumber":3,"parameterNumberName":"V-component_of_WINDS"},"data":[0,0,0,0,0,0,0,0,0,0,0,0,0,0,0,0,0,0,0,0,0,0,0,0,0,0,0,0,0,0,0,0,0,0,0,0,0,0,0,0,0,0,0,0,0,0,0,0,0,0,0,0,0,0,0,0,0,0,4.4861,4.4862,0,4.4953,4.4954,4.4955,4.499,4.499,4.4989,4.4989,4.5076,4.5078,4.5081,0,0,0,0,0,0,0,0,0,0,0,0,0,4.4707,4.471,4.4861,4.4862,4.4863,4.4953,4.4954,4.4955,4.499,4.499,4.4989,4.4989,4.5075,4.5078,4.5081,0,0,0,0,0,0,0,0,0,0,0,0,0,4.4783,4.471,4.4861,4.4892,4.4895,4.4952,4.4954,4.4955,4.499,4.499,4.4989,4.4989,4.5074,4.5078,4.5081,4.5112,0,0,4.5093,4.5095,0,0,0,0,0,0,0,0,4.4779,4.4789,4.4886,4.489,4.4894,4.496,4.4931,4.5008,4.499,4.4954,4.4989,4.4989,4.5037,4.5044,4.5061,4.5116,4.512,4.5093,4.5096,4.5097,4.5098,0,0,0,0,0,0,0,4.4774,4.4785,4.4897,4.4887,4.4892,4.4898,4.4908,4.4946,4.4996,4.4957,4.496,4.497,4.5039,4.5058,4.5064,4.5121,4.5093,4.5096,4.5099,4.51,4.5202,4.5202,0,0,0,0,0,0,4.4764,4.4781,4.4894,4.49,4.4835,4.4901,4.4913,4.4939,4.4996,4.5004,4.4971,4.4972,4.5051,4.5059,4.5067,4.5105,4.5097,4.5101,4.5103,4.5201,4.5202,4.5202,0,0,0,0,0,0,4.4761,4.4774,4.4891,4.4841,4.4856,4.4904,4.4933,4.4941,4.496,4.5006,4.5015,4.4981,4.5051,4.5062,4.51,4.5108,4.5102,4.5106,4.5201,4.5201,4.5202,4.5182,0,0,0,0,0,0,4.4756,4.4773,4.4788,4.4841,4.4859,4.4925,4.4934,4.4943,4.4967,4.4969,4.5018,4.5026,4.5052,4.5094,4.5104,4.5114,4.5109,4.52,4.5201,4.5202,4.5182,4.5182,4.5182,0,0,0,0,0,4.4751,4.4778,4.4788,4.4802,4.4879,4.4926,4.4936,4.4967,4.4968,4.4981,4.501,4.5025,4.5106,4.5098,4.5109,4.512,4.52,4.5201,4.5202,4.5182,4.5182,4.5182,0,0,0,0,0,0,4.4722,4.4786,4.4798,4.4844,4.4879,4.4932,4.495,4.4966,4.5,4.5001,4.5035,4.5046,4.5081,4.5104,4.5095,4.5151,4.5153,4.5157,4.5135,4.5135,4.5135,4.5128,4.5112,0,0,0,0,0,4.4722,4.4757,4.4809,4.4844,4.4862,4.4903,4.4924,4.4945,4.4982,4.4997,4.5029,4.5063,4.5095,4.5116,4.5149,4.5185,4.5195,4.5198,4.5197,4.5197,4.5199,4.5217,4.5218,4.5205,4.5205,4.5205,0,0,4.472,4.4759,4.4779,4.4839,4.487,4.4903,4.4915,4.495,4.4974,4.5002,4.5041,4.5065,4.5104,4.5141,4.5158,4.5161,4.5205,4.5198,4.5197,4.52,4.5218,4.5219,4.522,4.5206,4.5206,4.5205,0,0,4.4734,4.4768,4.48,4.483,4.4876,4.4902,4.4909,4.4959,4.4977,4.5016,4.5037,4.5064,4.512,4.5147,4.5167,4.5187,4.5201,4.5196,4.5195,4.5212,4.5213,4.5214,4.5219,4.5221,4.5198,4.5198,4.5198,0,4.4726,4.478,4.4814,4.4848,4.4872,4.4899,4.4929,4.4956,4.5009,4.5023,4.5026,4.5095,4.5124,4.5166,4.517,4.5187,4.5194,4.5192,4.5211,4.5212,4.5213,4.5219,4.5221,4.5198,4.5198,4.5198,4.5198,0,4.4766,4.4802,4.4822,4.4874,4.49,4.4932,4.4967,4.4989,4.5006,4.5031,4.5069,4.5104,4.5143,4.5154,4.5171,4.5197,4.5197,4.5204,4.5208,4.5213,4.5219,4.5221,4.5196,4.5197,4.5197,4.5197,0,0,4.4767,4.4836,4.4843,4.4865,4.4916,4.4943,4.4973,4.5014,4.5031,4.5065,4.509,4.5135,4.5142,4.5165,4.5184,4.5199,4.521,4.5204,4.5206,4.5203,4.5238,4.5232,4.5234,4.5218,4.5219,4.5219,4.5234,0,4.4787,4.4847,4.4877,4.4922,4.4954,4.4978,4.5005,4.5036,4.5059,4.5087,4.5111,4.5143,4.515,4.5164,4.5179,4.5205,4.5217,4.5204,4.5239,4.524,4.5229,4.5238,4.5232,4.5245,4.5237,4.5237,4.5238,0,4.4819,4.4855,4.4904,4.4948,4.4963,4.4987,4.5024,4.5051,4.5086,4.5101,4.5126,4.5144,4.5174,4.5174,4.5214,4.5204,4.522,4.5234,4.5235,4.524,4.524,4.5242,4.525,4.5252,4.5242,4.5241,4.5241,0,4.4813,4.4873,4.491,4.4928,4.4982,4.4997,4.5019,4.5054,4.5075,4.5106,4.512,4.5153,4.5171,4.5195,4.5221,4.5219,4.5256,4.526,4.5268,4.5267,4.5275,4.5275,4.5286,4.5285,4.5285,4.5285,4.5285,0,4.4832,4.4861,4.4907,4.493,4.4961,4.4993,4.5022,4.5045,4.5076,4.51,4.5122,4.5144,4.5177,4.5202,4.5222,4.525,4.5258,4.5269,4.5274,4.5268,4.5266,4.5278,4.5278,4.5286,4.5286,4.5286,4.5286,0,4.4832,4.4864,4.4905,4.4952,4.4964,4.4985,4.5023,4.5044,4.5067,4.5098,4.5106,4.5142,4.5172,4.52,4.524,4.5253,4.5281,4.5288,4.527,4.5273,4.5279,4.5278,4.5299,4.5303,4.53,4.53,4.53,0,4.4842,4.4865,4.4913,4.4932,4.4955,4.4985,4.5007,4.5037,4.5058,4.5098,4.5113,4.5146,4.5173,4.522,4.5248,4.5277,4.5284,4.5289,4.5289,4.5281,4.5283,4.5281,4.5283,4.5289,4.5289,4.5289,4.5289,0,4.4856,4.487,4.4902,4.4938,4.4964,4.4994,4.5024,4.5037,4.5072,4.5094,4.5127,4.5148,4.5189,4.522,4.5252,4.5272,4.5285,4.5288,4.5292,4.5285,4.5274,4.5279,4.5269,4.5288,4.5288,4.5288,4.5288,4.5288,4.486,4.488,4.4917,4.4951,4.4977,4.5004,4.5025,4.5051,4.5079,4.5116,4.5131,4.5164,4.5194,4.524,4.5258,4.5282,4.5285,4.529,4.5291,4.5292,4.529,4.527,4.5288,4.5288,4.5288,4.5288,4.5288,0,4.4874,4.4898,4.4929,4.4971,4.4996,4.5009,4.5041,4.5061,4.509,4.5119,4.5145,4.5181,4.521,4.5239,4.5269,4.5282,4.5288,4.5289,4.5288,4.5292,4.5286,4.528,4.5283,4.5283,4.5283,4.5283,4.5283,4.5283,4.4884,4.4919,4.4937,4.4983,4.5006,4.504,4.5057,4.5081,4.5104,4.5143,4.5169,4.5188,4.5215,4.5247,4.5273,4.5281,4.529,4.5289,4.5298,4.5292,4.5292,4.5292,4.5287,4.5291,4.5291,4.5301,4.5301,4.5301]}]]